Location: Haliburton Scout Reserve
(45.0900°N, 78.3200°W)
Time: 05:28:29
(UTC-05:00)

Vanguard 3 - Visible Passes

Search period start: 28 January 2023 00:00
Search period end: 07 February 2023 00:00
Orbit: 509 x 3253 km, 33.4° (Epoch: 27 January)

Date Brightness Start Highest point End Pass type
(mag) Time Alt. Az. Time Alt. Az. Time Alt. Az.
28 Jan11.401:30:39SE01:30:39SE00:51:23Wvisible
28 Jan 10.9 03:35:07 18° S 03:35:07 18° S 03:39:05 10° S visible
28 Jan 10.0 19:16:41 10° SSW 19:26:21 31° SE 19:31:28 26° ESE visible
28 Jan 9.9 21:26:05 10° WSW 21:35:56 47° SSW 21:35:56 47° SSW visible
28 Jan 11.0 23:38:17 10° W 23:40:23 16° WSW 23:40:23 16° WSW visible
29 Jan 11.2 02:24:15 12° SSE 02:24:15 12° SSE 02:25:06 10° SSE visible
29 Jan 11.0 04:28:44 12° SSW 04:28:44 12° SSW 04:30:13 10° SSW visible
29 Jan 10.3 18:04:27 10° S 18:11:12 19° SE 18:20:12 10° E visible
29 Jan 9.8 20:11:32 10° SW 20:22:38 44° SSE 20:24:53 42° SE visible
29 Jan 10.3 22:22:25 10° WSW 22:29:20 36° SW 22:29:20 36° SW visible
30 Jan11.401:13:23SE01:13:23SE00:33:47Wvisible
30 Jan 11.1 03:17:51 12° S 03:17:51 12° S 03:19:01 10° S visible
30 Jan 9.9 18:57:50 10° SSW 19:06:46 32° SE 19:13:48 22° ESE visible
30 Jan 9.7 21:07:15 10° WSW 21:18:15 52° S 21:18:15 52° S visible
30 Jan 10.8 23:19:11 10° W 23:22:42 22° WSW 23:22:42 22° WSW visible
31 Jan 10.2 17:45:29 10° S 17:51:44 19° SE 18:00:14 10° E visible
31 Jan 9.7 19:52:46 10° SW 20:03:00 44° SSE 20:07:08 38° SE visible
31 Jan 10.0 22:03:31 10° WSW 22:11:35 42° SW 22:11:35 42° SW visible
01 Feb 9.8 18:39:06 10° SSW 18:47:17 32° SSE 18:56:00 18° E visible
01 Feb 9.6 20:48:30 10° WSW 20:59:50 52° S 21:00:27 52° SSE visible
01 Feb 10.6 23:00:12 10° W 23:04:54 26° WSW 23:04:54 26° WSW visible
02 Feb 9.6 19:34:07 10° SW 19:43:29 44° SSE 19:49:17 32° ESE visible
02 Feb 9.8 21:44:43 10° WSW 21:53:44 47° SW 21:53:44 47° SW visible
02 Feb 11.1 23:57:19 10° W 23:58:10 12° W 23:58:10 12° W visible
03 Feb 9.7 18:20:27 10° SSW 18:27:55 32° SSE 18:38:07 13° E visible
03 Feb 9.5 20:29:50 10° WSW 20:40:14 51° S 20:42:33 48° SSE visible
03 Feb 10.4 22:41:19 10° W 22:47:00 30° WSW 22:47:00 30° WSW visible
04 Feb 9.5 19:15:31 10° SW 19:24:05 43° SSE 19:31:22 26° ESE visible
04 Feb 9.7 21:26:00 10° WSW 21:35:49 49° SSW 21:35:49 49° SSW visible
04 Feb 10.9 23:38:24 10° W 23:40:15 15° W 23:40:15 15° W visible
05 Feb 9.5 18:01:51 10° SSW 18:08:39 32° SSE 18:19:27 10° E visible
05 Feb 9.5 20:11:15 10° WSW 20:20:45 49° S 20:24:38 41° SE visible
05 Feb 10.2 22:22:33 10° W 22:29:04 34° SW 22:29:04 34° SW visible
06 Feb 9.4 18:57:00 10° SW 19:04:47 42° SSE 19:13:26 20° ESE visible
06 Feb 9.6 21:07:22 10° WSW 21:17:44 47° S 21:17:53 47° S visible
06 Feb 10.8 23:19:37 10° W 23:22:19 18° WSW 23:22:19 18° WSW visible
